This demonstration page uses our WeatherBlox Daily Observations layout. Learn more.

Left ArrowRight Arrow

34.16533, -84.80231

Hourly Observations for February 13, 2022

Temp ( °F °C ) Dew Point ( °F °C ) Humidity (%) Winds ( mph kmh ) Pressure ( in mb ) Visibility ( mi km ) Precip ( " mm )
12:15 am 00:15 Cloudy 43 6 27 -3 53 53 VRB 3 6 30.17 1022 10 16 0.00 0.00
12:35 am 00:35 Cloudy 41 5 27 -3 57 57 WNW 9 15 30.17 1022 10 16 0.00 0.00
12:55 am 00:55 Cloudy 41 5 27 -3 57 57 VRB 5 7 30.17 1022 10 16 0.00 0.00
1:15 am 01:15 Cloudy 41 5 27 -3 57 57 VRB 5 7 30.16 1021 10 16 0.00 0.00
1:35 am 01:35 Cloudy 39 4 27 -3 61 61 VRB 7 11 30.18 1022 10 16 0.00 0.00
1:55 am 01:55 Cloudy 39 4 27 -3 61 61 W 7 11 30.19 1022 10 16 0.00 0.00
2:15 am 02:15 Cloudy 39 4 25 -4 56 56 WNW 8 13 30.18 1022 10 16 0.00 0.00
2:35 am 02:35 Cloudy 39 4 25 -4 56 56 VRB 6 9 30.17 1022 10 16 0.00 0.00
2:55 am 02:55 Cloudy 39 4 25 -4 56 56 W 9 15 30.17 1022 10 16 0.00 0.00
3:15 am 03:15 Cloudy 39 4 25 -4 56 56 WNW 9 15 30.18 1022 10 16 0.00 0.00
3:35 am 03:35 Cloudy 39 4 25 -4 56 56 WNW 9 15 30.18 1022 10 16 0.00 0.00
3:55 am 03:55 Cloudy 37 3 25 -4 60 60 VRB 7 11 30.19 1022 10 16 0.00 0.00
4:15 am 04:15 Cloudy 37 3 25 -4 60 60 WNW 9 15 30.18 1022 10 16 0.00 0.00
4:35 am 04:35 Cloudy 37 3 25 -4 60 60 NW 8 13 30.19 1022 10 16 0.00 0.00
4:55 am 04:55 Cloudy 37 3 25 -4 60 60 VRB 6 9 30.18 1022 10 16 0.00 0.00
5:15 am 05:15 Cloudy 37 3 25 -4 60 60 W 7 11 30.19 1022 10 16 0.00 0.00
5:35 am 05:35 Cloudy 37 3 23 -5 56 56 W 10 17 30.18 1022 10 16 0.00 0.00
5:55 am 05:55 Cloudy 37 3 23 -5 56 56 W 10 17 30.18 1022 10 16 0.00 0.00
6:15 am 06:15 Cloudy 36 2 23 -5 60 60 W 8 13 30.18 1022 10 16 0.00 0.00
6:35 am 06:35 Cloudy 36 2 23 -5 60 60 WNW 7 11 30.19 1022 10 16 0.00 0.00
6:55 am 06:55 Cloudy 36 2 23 -5 60 60 NNW 9 15 30.20 1023 10 16 0.00 0.00
7:15 am 07:15 Cloudy 36 2 23 -5 60 60 VRB 6 9 30.19 1022 10 16 0.00 0.00
7:35 am 07:35 Cloudy 36 2 23 -5 60 60 WNW 6 9 30.21 1023 10 16 0.00 0.00
7:55 am 07:55 Cloudy 34 1 23 -5 65 65 W 9 15 30.22 1023 10 16 0.00 0.00
8:15 am 08:15 Partly Cloudy 34 1 23 -5 65 65 W 9 15 30.23 1024 10 16 0.00 0.00
8:35 am 08:35 Mostly Sunny 34 1 21 -6 60 60 WSW 9 15 30.24 1024 10 16 0.00 0.00
8:55 am 08:55 Sunny 34 1 21 -6 60 60 VRB 7 11 30.24 1024 10 16 0.00 0.00
9:15 am 09:15 Partly Cloudy 36 2 23 -5 60 60 VRB 6 9 30.23 1024 10 16 0.00 0.00
9:35 am 09:35 Mostly Sunny 36 2 23 -5 60 60 NNW 10 17 30.24 1024 10 16 0.00 0.00
9:55 am 09:55 Sunny 36 2 23 -5 60 60 NW 8 13 30.24 1024 10 16 0.00 0.00
10:35 am 10:35 Sunny 36 2 21 -6 56 56 VRB 6 9 30.24 1024 10 16 0.00 0.00
10:55 am 10:55 Sunny 37 3 21 -6 52 52 W 10 17 30.24 1024 10 16 0.00 0.00
11:15 am 11:15 Sunny 37 3 19 -7 48 48 WNW 10 17 30.24 1024 10 16 0.00 0.00
11:35 am 11:35 Sunny 39 4 19 -7 45 45 WNW 10 17 30.24 1024 10 16 0.00 0.00
11:55 am 11:55 Sunny 41 5 16 -9 36 36 W 13 20 30.23 1024 10 16 0.00 0.00
12:15 pm 12:15 Sunny 41 5 14 -10 33 33 WNW 9 15 30.23 1024 10 16 0.00 0.00
12:35 pm 12:35 Sunny 41 5 12 -11 31 31 WNW 14 22 30.22 1024 10 16 0.00 0.00
12:55 pm 12:55 Sunny 43 6 9 -13 24 24 WNW 9 15 30.21 1023 10 16 0.00 0.00
1:15 pm 13:15 Sunny 43 6 7 -14 22 22 WNW 13 20 30.21 1023 10 16 0.00 0.00
1:35 pm 13:35 Sunny 43 6 7 -14 22 22 WNW 13 20 30.21 1023 10 16 0.00 0.00
1:55 pm 13:55 Sunny 43 6 5 -15 21 21 WNW 14 22 30.20 1023 10 16 0.00 0.00
2:15 pm 14:15 Sunny 45 7 5 -15 19 19 WNW 10 17 30.19 1022 10 16 0.00 0.00
2:35 pm 14:35 Sunny 45 7 7 -14 21 21 WNW 12 19 30.19 1022 10 16 0.00 0.00
2:55 pm 14:55 Sunny 45 7 9 -13 23 23 W 14 22 30.18 1022 10 16 0.00 0.00
3:15 pm 15:15 Sunny 46 8 10 -12 23 23 W 18 30 30.18 1022 10 16 0.00 0.00
3:35 pm 15:35 Sunny 45 7 10 -12 25 25 W 15 24 30.18 1022 10 16 0.00 0.00
3:55 pm 15:55 Sunny 46 8 10 -12 23 23 WNW 8 13 30.17 1022 10 16 0.00 0.00
4:15 pm 16:15 Sunny 46 8 10 -12 23 23 W 10 17 30.17 1022 10 16 0.00 0.00
4:35 pm 16:35 Sunny 46 8 10 -12 23 23 VRB 6 9 30.18 1022 10 16 0.00 0.00
4:55 pm 16:55 Sunny 46 8 10 -12 23 23 WNW 9 15 30.18 1022 10 16 0.00 0.00
5:15 pm 17:15 Sunny 46 8 9 -13 21 21 W 12 19 30.18 1022 10 16 0.00 0.00
5:35 pm 17:35 Sunny 45 7 10 -12 25 25 W 9 15 30.18 1022 10 16 0.00 0.00
5:55 pm 17:55 Sunny 45 7 10 -12 25 25 W 10 17 30.19 1022 10 16 0.00 0.00
6:15 pm 18:15 Sunny 43 6 12 -11 29 29 W 10 17 30.20 1023 10 16 0.00 0.00
6:35 pm 18:35 Clear 43 6 12 -11 29 29 W 7 11 30.20 1023 10 16 0.00 0.00
6:55 pm 18:55 Clear 41 5 14 -10 33 33 W 7 11 30.21 1023 10 16 0.00 0.00
7:15 pm 19:15 Clear 41 5 14 -10 33 33 W 8 13 30.21 1023 10 16 0.00 0.00
7:35 pm 19:35 Clear 39 4 14 -10 36 36 W 8 13 30.23 1024 10 16 0.00 0.00
7:55 pm 19:55 Clear 39 4 14 -10 36 36 W 7 11 30.24 1024 10 16 0.00 0.00
8:15 pm 20:15 Mostly Clear 39 4 14 -10 36 36 W 6 9 30.25 1024 10 16 0.00 0.00
8:35 pm 20:35 Clear 37 3 14 -10 38 38 W 5 7 30.25 1024 10 16 0.00 0.00
8:55 pm 20:55 Clear 37 3 14 -10 38 38 W 7 11 30.26 1025 10 16 0.00 0.00
9:15 pm 21:15 Clear 37 3 16 -9 41 41 W 8 13 30.28 1025 10 16 0.00 0.00
9:35 pm 21:35 Clear 36 2 16 -9 44 44 W 7 11 30.28 1026 10 16 0.00 0.00
9:55 pm 21:55 Mostly Clear 36 2 16 -9 44 44 W 7 11 30.29 1026 10 16 0.00 0.00
10:15 pm 22:15 Mostly Clear 36 2 16 -9 44 44 W 6 9 30.30 1026 10 16 0.00 0.00
10:35 pm 22:35 Mostly Clear 36 2 16 -9 44 44 W 7 11 30.29 1026 10 16 0.00 0.00
10:55 pm 22:55 Mostly Clear 34 1 16 -9 48 48 W 7 11 30.30 1026 10 16 0.00 0.00
11:15 pm 23:15 Mostly Clear 36 2 16 -9 44 44 Calm 30.28 1026 10 16 0.00 0.00
11:35 pm 23:35 Clear 34 1 16 -9 48 48 Calm 30.29 1026 10 16 0.00 0.00
11:55 pm 23:55 Clear 32 0 16 -9 51 51 Calm 30.29 1026 10 16 0.00 0.00

Powered by AerisWeather